Date String (YYYY-MM-DD hh:mm:ss) UTC,Instrument flags,Ambient pressure (hPa),Sample flow (lpm),Bypass flow (lpm),Sample temperature (°C),Ambient temperature (°C),ASC tube jacket temperature (°C),LED temperature (°C),Box temperature (°C),Sample RH (%),Span deviation,Mass concentration (μg/m³),Mass concentration (μg/m³),Mass concentration (μg/m³)
DateTimeUTC,F1_M11,P_M11,Q1_M11,Q2_M11,T1_M11,T2_M11,T3_M11,T4_M11,T5_M11,U1_M11,ZSPAN_M11,X0_M11,X2_M11,X1_M11
2022-02-18 01:00:00,,0823.4,4.99,0.00,22.0,21.3,00.0,31.1,23.8,08.4,0000.0,0008.77,0005.56,0005.21
2022-02-18 01:01:00,,0823.5,5.02,0.00,22.0,21.3,00.0,31.1,23.8,08.4,0000.0,0008.77,0005.56,0005.21
2022-02-18 01:02:00,,0823.4,4.99,0.00,22.0,21.3,00.0,31.0,23.8,08.5,0000.0,0008.29,0005.55,0005.20
2022-02-18 01:03:00,,0823.5,5.00,0.00,22.0,21.3,00.0,31.0,23.8,08.5,0000.0,0008.04,0005.55,0005.20
2022-02-18 01:04:00,,0823.5,5.01,0.00,22.0,21.3,00.0,31.0,23.8,08.5,0000.0,0008.44,0005.55,0005.20
2022-02-18 01:05:00,,0823.5,4.99,0.00,22.0,21.3,00.0,31.0,23.8,08.5,0000.0,0008.62,0005.56,0005.21
2022-02-18 01:06:00,,0823.5,4.99,0.00,22.0,21.3,00.0,31.0,23.7,08.4,0000.0,0009.18,0005.56,0005.20
2022-02-18 01:07:00,,0823.5,5.00,0.00,22.0,21.3,00.0,31.0,23.7,08.4,0000.0,0009.26,0005.57,0005.18
2022-02-18 01:08:00,,0823.5,5.00,0.00,22.0,21.2,00.0,31.0,23.7,08.4,0000.0,0010.45,0005.56,0005.17
2022-02-18 01:09:00,,0823.5,4.99,0.00,22.0,21.2,00.0,31.0,23.7,08.5,0000.0,0010.57,0005.53,0005.16
2022-02-18 01:10:00,,0823.6,5.00,0.00,21.9,21.2,00.0,31.0,23.7,08.6,0000.0,0010.52,0005.50,0005.16
2022-02-18 01:11:00,,0823.5,5.01,0.00,21.9,21.2,00.0,31.0,23.6,08.6,0000.0,0010.61,0005.51,0005.17
2022-02-18 01:12:00,,0823.6,4.99,0.00,21.9,21.2,00.0,31.0,23.6,08.6,0000.0,0010.71,0005.52,0005.16
2022-02-18 01:13:00,,0823.6,4.99,0.00,22.0,21.7,00.0,31.0,23.8,08.5,0000.0,0010.82,0005.54,0005.14
2022-02-18 01:14:00,,0823.6,5.00,0.00,22.1,22.4,00.0,31.1,24.0,08.5,0000.0,0010.81,0005.53,0005.13
2022-02-18 01:15:00,,0823.7,4.99,0.00,22.3,22.9,00.0,31.1,24.3,08.5,0000.0,0010.46,0005.53,0005.11
2022-02-18 01:16:00,,0823.6,5.00,0.00,22.3,22.8,00.0,31.1,24.3,08.4,0000.0,0010.90,0005.56,0005.10
2022-02-18 01:17:00,,0823.7,5.00,0.00,22.4,22.6,00.0,31.1,24.3,08.4,0000.0,0010.32,0005.57,0005.10
2022-02-18 01:18:00,,0823.7,4.99,0.00,22.4,22.4,00.0,31.1,24.3,08.4,0001.7,0010.22,0005.55,0005.11
2022-02-18 01:19:00,,0823.7,4.99,0.00,22.4,22.2,00.0,31.2,24.2,08.4,0002.9,0009.25,0005.55,0005.11
2022-02-18 01:20:00,,0823.7,5.00,0.00,22.3,22.1,00.0,31.2,24.2,08.4,0003.0,0009.07,0005.57,0005.11
2022-02-18 01:21:00,,0823.6,5.01,0.00,22.3,22.0,00.0,31.2,24.2,08.4,0002.8,0009.56,0005.58,0005.10
2022-02-18 01:22:00,,0823.7,5.01,0.00,22.3,21.9,00.0,31.2,24.2,08.4,0003.1,0009.58,0005.58,0005.10
2022-02-18 01:23:00,,0823.6,4.99,0.00,22.4,21.9,00.0,31.2,24.2,08.4,0003.0,0009.53,0005.56,0005.10
2022-02-18 01:24:00,,0823.7,5.00,0.00,22.3,21.8,00.0,31.2,24.1,08.4,0003.2,0009.35,0005.50,0005.10
2022-02-18 01:25:00,,0823.7,5.00,0.00,22.3,21.8,00.0,31.2,24.1,08.4,0003.6,0009.40,0005.52,0005.11
2022-02-18 01:26:00,,0823.6,4.99,0.00,22.3,21.7,00.0,31.2,24.1,08.4,0003.5,0009.28,0005.53,0005.13
2022-02-18 01:27:00,,0823.7,5.00,0.00,22.3,21.6,00.0,31.2,24.1,08.4,0004.1,0008.81,0005.51,0005.15
2022-02-18 01:28:00,,0823.6,5.01,0.00,22.3,21.6,00.0,31.2,24.1,08.4,0003.6,0008.88,0005.49,0005.14
2022-02-18 01:29:00,,0823.7,4.99,0.00,22.3,21.6,00.0,31.2,24.1,08.4,0000.8,0009.31,0005.48,0005.14
2022-02-18 01:30:00,,0823.7,5.00,0.00,22.3,21.6,00.0,31.2,24.1,08.4,0000.0,0009.20,0005.46,0005.15
2022-02-18 01:31:00,,0823.7,5.01,0.00,22.3,21.5,00.0,31.2,24.0,08.4,0000.7,0009.11,0005.45,0005.16
2022-02-18 01:32:00,,0823.8,4.99,0.00,22.3,21.5,00.0,31.2,24.0,08.4,0001.3,0008.57,0005.45,0005.17
2022-02-18 01:33:00,,0823.8,5.00,0.00,22.3,21.5,00.0,31.2,24.0,08.3,0000.0,0008.93,0005.47,0005.18
2022-02-18 01:34:00,,0823.8,4.99,0.00,22.3,21.5,00.0,31.2,24.0,08.3,0000.0,0009.14,0005.47,0005.20
2022-02-18 01:35:00,,0823.8,4.99,0.00,22.2,21.4,00.0,31.2,24.0,08.3,0000.0,0009.36,0005.56,0005.22
2022-02-18 01:36:00,,0823.8,5.01,0.00,22.2,21.4,00.0,31.2,24.0,08.3,0002.4,0009.55,0005.64,0005.24
2022-02-18 01:37:00,,0823.8,4.99,0.00,22.2,21.4,00.0,31.2,24.0,08.3,0000.2,0009.75,0005.70,0005.25
2022-02-18 01:38:00,,0823.8,4.99,0.00,22.2,21.4,00.0,31.2,24.0,08.4,0000.0,0009.83,0005.75,0005.25
2022-02-18 01:39:00,,0823.8,5.02,0.00,22.2,21.3,00.0,31.2,23.9,08.4,0000.0,0009.67,0005.75,0005.27
2022-02-18 01:40:00,,0823.8,4.99,0.00,22.2,21.3,00.0,31.2,23.9,08.4,0000.0,0009.20,0005.76,0005.27
2022-02-18 01:41:00,,0823.7,5.00,0.00,22.2,21.3,00.0,31.2,23.9,08.3,0000.0,0009.29,0005.79,0005.26
2022-02-18 01:42:00,,0823.6,5.01,0.00,22.2,21.3,00.0,31.2,23.9,08.4,0000.0,0009.21,0005.79,0005.25
2022-02-18 01:43:00,,0823.6,4.99,0.00,22.1,21.3,00.0,31.2,23.9,08.4,0000.0,0009.37,0005.82,0005.25
2022-02-18 01:44:00,,0823.7,5.00,0.00,22.1,21.2,00.0,31.1,23.9,08.4,0000.0,0009.10,0005.81,0005.24
2022-02-18 01:45:00,,0823.7,5.01,0.00,22.1,21.2,00.0,31.1,23.9,08.3,0000.0,0008.83,0005.84,0005.23
2022-02-18 01:46:00,,0823.5,4.99,0.00,22.1,21.2,00.0,31.1,23.8,08.3,0000.0,0009.11,0005.85,0005.23
2022-02-18 01:47:00,,0823.4,5.00,0.00,22.1,21.2,00.0,31.1,23.8,08.3,0000.0,0009.18,0005.73,0005.20
2022-02-18 01:48:00,,0823.5,5.01,0.00,22.0,21.2,00.0,31.1,23.8,08.3,0000.0,0009.03,0005.67,0005.17
2022-02-18 01:49:00,,0823.7,4.99,0.00,22.1,21.4,00.0,31.1,23.8,08.3,0000.0,0009.08,0005.58,0005.13
2022-02-18 01:50:00,,0823.7,5.00,0.00,22.2,22.0,00.0,31.1,24.0,08.3,0000.2,0010.08,0005.61,0005.11
2022-02-18 01:51:00,,0823.7,5.01,0.00,22.3,22.7,00.0,31.2,24.2,08.3,0000.3,0010.98,0005.66,0005.12
2022-02-18 01:52:00,,0823.7,5.00,0.00,22.4,22.8,00.0,31.2,24.3,08.2,0000.0,0010.94,0005.63,0005.12
2022-02-18 01:53:00,,0823.7,5.00,0.00,22.4,22.6,00.0,31.2,24.3,08.2,-000.2,0011.01,0005.65,0005.12
2022-02-18 01:54:00,,0823.5,5.00,0.00,22.4,22.4,00.0,31.2,24.3,08.2,-000.1,0010.95,0005.64,0005.11
2022-02-18 01:55:00,,0823.3,4.99,0.00,22.4,22.2,00.0,31.2,24.2,08.1,-000.7,0011.02,0005.64,0005.12
2022-02-18 01:56:00,,0823.3,4.99,0.00,22.4,22.1,00.0,31.2,24.1,08.2,-000.9,0011.00,0005.63,0005.13
2022-02-18 01:57:00,,0823.4,5.01,0.00,22.3,22.0,00.0,31.2,24.1,08.2,-000.6,0010.72,0005.63,0005.14
2022-02-18 01:58:00,,0823.3,5.00,0.00,22.3,21.9,00.0,31.2,24.1,08.3,0000.1,0010.63,0005.70,0005.18
2022-02-18 01:59:00,,0823.4,5.00,0.00,22.3,21.8,00.0,31.2,24.0,08.3,0000.2,0010.64,0005.73,0005.21
